Location: Theydon Bois
(51.6750°N, 0.1050°E)
Time: 18:26:13
(UTC+01:00)

OTV 5 (USA 277) - Visible Passes

Search period start: 25 June 2018 00:00
Search period end: 05 July 2018 00:00
Orbit: 313 x 320 km, 54.5° (Epoch: 21 June)

Date Brightness Start Highest point End Pass type
(mag) Time Alt. Az. Time Alt. Az. Time Alt. Az.
25 Jun ? 00:55:43 10° W 00:57:36 27° WSW 00:57:36 27° WSW visible
25 Jun ? 23:35:42 10° WNW 23:38:24 83° SSW 23:40:03 21° ESE visible
26 Jun ? 01:10:39 10° W 01:10:54 11° WSW 01:10:54 11° WSW visible
26 Jun ? 22:15:49 10° WNW 22:18:28 51° N 22:21:07 10° E visible
26 Jun ? 23:50:11 10° WNW 23:52:46 42° SSW 23:53:26 34° S visible
27 Jun ? 22:30:15 10° WNW 22:32:58 75° NNE 22:35:40 10° ESE visible
28 Jun ? 00:04:52 10° W 00:06:52 21° SW 00:06:52 21° SW visible
28 Jun ? 22:44:42 10° WNW 22:47:22 61° SSW 22:49:31 14° SE visible
29 Jun ? 22:59:15 10° W 23:01:42 30° SW 23:03:04 19° SSE visible
30 Jun ? 23:14:10 10° W 23:15:54 15° SW 23:16:39 14° SSW visible
02 Jul ? 22:08:24 10° W 22:10:35 22° SW 22:12:45 10° SSE visible
03 Jul ? 22:23:55 10° WSW 22:24:44 11° SW 22:25:32 10° SSW visible
